Regional Weather Roundup
Issued by NWS

Home | Current Version | Previous Version | Text Only | Print | Product List | Glossary Off
Versions: 1 2 3 4 5 6 7 8 9 10 11 12 13 14 15 16 17 18 19 20 21 22 23 24 25 26 27 28 29 30 31 32 33 34 35 36 37 38 39 40 41 42 43 44 45 46 47 48 49 50

000
ASUS45 KBOU 110610
RWRCO

WEATHER ROUNDUP FOR COLORADO
NATIONAL WEATHER SERVICE DENVER/BOULDER CO
1200 AM MDT FRI JUL 11 2014

NOTE: "FAIR" INDICATES FEW OR NO CLOUDS BELOW 12000 FEET WITH NO
SIGNIFICANT WEATHER AND/OR OBSTRUCTIONS TO VISIBILITY.

COZ001>005-013-030-031-110700-
...NORTHWEST COLORADO...

CITY           SKY/WX    TMP DP  RH WIND       PRES   REMARKS
CRAIG          MOCLDY    62  53  72 S7        30.18R
HAYDEN         CLOUDY    63  55  77 SE15      30.22R
MEEKER         CLOUDY    66  54  65 E10       30.21R
MOUNT WERNER   NOT AVBL
STEAMBOAT SPGS CLOUDY    60  55  86 E12       30.28R
WALDEN         MOCLDY    55  50  82 S6        30.33R
$$

COZ006>008-011-110700-
...WEST CENTRAL VALLEYS...

CITY           SKY/WX    TMP DP  RH WIND       PRES   REMARKS
GRAND JUNCTION MOCLDY    79  49  34 E13       30.03R
MONTROSE       MOCLDY    71  57  61 S9        30.13R
EAGLE          CLOUDY    61  59  94 CALM      30.31R
RIFLE          CLOUDY    68  56  65 CALM      30.16R
DELTA          MOCLDY    76  54  45 NE8       30.08S
NUCLA          MOCLDY    72  46  40 E5        30.17R
$$

COZ017>023-064>068-110700-
...SOUTHWEST COLORADO...

CITY           SKY/WX    TMP DP  RH WIND       PRES   REMARKS
DURANGO        MOCLDY    67  52  58 SW10      30.23R
CORTEZ         CLEAR     70  52  52 E7        30.15R
PAGOSA SPRINGS MOCLDY    64  49  58 CALM      30.30S
TELLURIDE      MOCLDY    59  48  67 SE5       30.39S
WOLF CREEK PAS NOT AVBL
$$

COZ009-010-012-014-032>034-037-058>063-110700-
...CENTRAL COLORADO...

CITY           SKY/WX    TMP DP  RH WIND       PRES   REMARKS
ASPEN          CLOUDY    58  54  86 SW5       30.32R
BUENA VISTA    PTCLDY    61  49  65 NW10      30.31S
COPPER MTN     CLOUDY    54  41  62 S8        30.63F
BERTHOUD PASS  CLOUDY    45  32  61 W7        30.67F
COTTONWOOD PAS CLOUDY    59  43  55 W9        30.45S
GUNNISON       MOCLDY    57  48  72 N6        30.33R
KREMMLING      DRIZZLE   61  50  67 CALM      30.32R
LEADVILLE      CLOUDY    50  47  89 NE5       30.45F
SALIDA         PTCLDY    65  47  51 W3        30.35R
SUNLIGHT       RAIN      50  50 100 CALM      30.54S
WILKERSON PASS MOCLDY    55  36  47 W5        30.59R
$$

COZ069>075-110700-
...SAN LUIS VALLEY/SANGRE DE CRISTO MOUNTAINS...

CITY           SKY/WX    TMP DP  RH WIND       PRES   REMARKS
ALAMOSA        PTCLDY    61  49  64 E7        30.25R
LA VETA PASS   CLEAR     55  43  62 SW9G18    30.46S
SAGUACHE       NOT AVBL
$$

COZ035-036-038>040-110700-
...NORTHERN COLORADO FRONT RANGE...

CITY           SKY/WX    TMP DP  RH WIND       PRES   REMARKS
DENVER INTL AP CLOUDY    71  57  61 N15       30.08R
DMNS CITY PARK   N/A     72  56  55 N9G18     30.10S
AURORA         NOT AVBL
FRONT RANGE AP NOT AVBL
ERIE MUNI ARPT CLOUDY    73  54  50 NE13G18   30.07S
BOULDER MUN AP CLOUDY    72  54  53 CALM      30.10S
CENTENNIAL     CLOUDY    73  55  53 N18       30.12R
BROOMFIELD     CLOUDY    73  54  49 N16G23    30.14R
FORT COLLINS   CLOUDY    73  55  53 N13       30.08R
LONGMONT       CLOUDY    75  56  50 NE3       30.09R
$$

COZ041-046-047-076>085-087-088-110700-
...PIKES PEAK/PALMER DIVIDE AND SOUTHERN FOOTHILLS...

CITY           SKY/WX    TMP DP  RH WIND       PRES   REMARKS
COLO. SPRINGS  PTCLDY    69  37  30 N7        30.12R
A. F. ACADEMY  PTCLDY    61  44  53 N12       30.15R
ELLICOTT       NOT AVBL
FALCON         PTCLDY    65  36  34 CALM      30.18S
FORT CARSON    PTCLDY    70  41  34 NW14      30.07R
LIMON          PTCLDY    69  45  41 SE6       30.04R
MONUMENT HILL  MOCLDY    66  37  34 W8        30.18S
TRINIDAD       CLEAR     76  48  37 SW12      30.08S
$$

COZ042>045-048>051-090-091-110700-
...NORTHEAST COLORADO...

CITY           SKY/WX    TMP DP  RH WIND       PRES   REMARKS
GREELEY ARPT   NOT AVBL
AKRON          MOCLDY    74  64  71 MISG      29.99R
BURLINGTON     CLEAR     73  55  53 S14       29.97S
WRAY             N/A     77  65  65 SE14      29.91S
STERLING       MOCLDY    72  61  68 NE16G32   29.99R
HOLYOKE        PTCLDY    77  68  73 E3        29.96R
FORT MORGAN    MOCLDY    70  56  61 N21G28    30.00S
$$

COZ086-089-092>099-110700-
...SOUTHEAST COLORADO...

CITY           SKY/WX    TMP DP  RH WIND       PRES   REMARKS
PUEBLO         CLEAR     73  45  36 N9        29.95R
LA JUNTA       CLEAR     86  51  29 S14       29.95S
LAMAR          CLEAR     83  47  28 S24G32    29.93S
SPRINGFIELD      N/A     75  48  38 S17       30.04S
$$


USA.gov is the U.S. government's official web portal to all federal, state and local government web resources and services.